Location: Graswijk
(52.9667°N, 6.5500°E)
Time: 21:32:21
(UTC+00:00)

GP-B - Pass Details

Date: 15 May 2026
Orbit: 617 x 621 km, 89.9° (Epoch: 10 June)

Event Time Altitude Azimuth Distance (km) Brightness Sun altitude
Rises 22:28:11 0° 7° (N) 2,909 7.8 -16.7°
Reaches altitude 10° 22:30:35 10° 17° (NNE) 1,998 6.6 -16.8°
Maximum altitude 22:34:35 34° 83° (E) 1,034 4.1 -17.0°
Enters shadow 22:36:19 25° 125° (SE) 1,268 4.2 -17.0°
